FW4423 Severna Park MD US current weather conditions

sailwx.info

Wind from 254 at 0 knots gusting 2

Air temperature 21.1° C
Dewpoint 14.3° C

Last reported at 2020-Oct-01 16:00 UTC.
Time now 2020-Oct-01 16:46 UTC

Location: N 39°04' W 076°34'.
View on Google Maps.

See reports from other nearby stations

  
Tides and Currents Weather Stations Pressure Air Temp Water Temp Dewpoint Dewpoint Depression Visibility Wind Speed Wind Dir Waves Ship Positions
date/time (UTC)wind fromknots sea level pressurealtimeterstation pressurevisibilityair tempwater tempwave heightnotes
2020-Oct-01 16:00 254 0 gusting 2 21.1
2020-Oct-01 15:50 315 1 gusting 3 20.6
2020-Oct-01 15:40 332 0 gusting 2 20.6
2020-Oct-01 15:30 301 1 gusting 3 20.0
2020-Oct-01 15:22 308 1 gusting 2 20.0
2020-Oct-01 15:15 311 0 gusting 1 20.6
2020-Oct-01 15:00 286 20.0
2020-Oct-01 14:50 339 0 gusting 1 20.6
2020-Oct-01 14:40 225 20.6
2020-Oct-01 14:30 295 0 gusting 1 19.4
2020-Oct-01 14:20 269 0 gusting 2 18.9
2020-Oct-01 14:10 301 1 gusting 1 18.9
2020-Oct-01 14:00 270 0 gusting 2 18.3
2020-Oct-01 13:50 262 1 gusting 1 18.3
2020-Oct-01 13:40 258 0 gusting 1 17.2
2020-Oct-01 13:30 235 0 gusting 1 17.2
2020-Oct-01 13:20 270 0 gusting 2 17.2
2020-Oct-01 13:10 270 16.7
2020-Oct-01 13:00 204 15.6
2020-Oct-01 12:50 245 15.6
2020-Oct-01 12:40 290 15.0
2020-Oct-01 12:30 202 15.0
2020-Oct-01 12:20 275 14.4
2020-Oct-01 12:10 315 13.9
2020-Oct-01 12:00 318 13.9
2020-Oct-01 11:50 180 13.3
2020-Oct-01 11:40 281 0 gusting 1 13.3
2020-Oct-01 11:30 191 13.3
2020-Oct-01 11:20 13.3
2020-Oct-01 11:10 13.3
2020-Oct-01 11:00 13.3
2020-Oct-01 10:50 13.3
2020-Oct-01 10:40 13.3
2020-Oct-01 10:30 13.3
2020-Oct-01 10:20 225 13.3
2020-Oct-01 10:10 13.3
2020-Oct-01 10:00 13.3
2020-Oct-01 09:50 13.3
2020-Oct-01 09:40 13.9
2020-Oct-01 09:30 180 13.9
2020-Oct-01 09:20 236 13.9
2020-Oct-01 09:10 227 13.9
2020-Oct-01 09:00 13.9
2020-Oct-01 08:50 247 13.9
2020-Oct-01 08:40 254 13.9
2020-Oct-01 08:30 294 0 gusting 1 13.9
2020-Oct-01 08:20 243 14.4
2020-Oct-01 08:10 248 1 gusting 3 14.4
2020-Oct-01 08:00 202 14.4
2020-Oct-01 07:50 282 0 gusting 2 14.4
2020-Oct-01 07:40 302 14.4
2020-Oct-01 07:30 215 14.4
2020-Oct-01 07:20 327 0 gusting 1 14.4
2020-Oct-01 07:10 301 0 gusting 2 14.4
2020-Oct-01 07:00 162 0 gusting 1 14.4
2020-Oct-01 06:50 242 14.4
2020-Oct-01 06:40 192 14.4
2020-Oct-01 06:30 186 0 gusting 2 14.4
2020-Oct-01 06:20 258 14.4
2020-Oct-01 06:10 281 0 gusting 1 14.4
2020-Oct-01 06:00 225 14.4
2020-Oct-01 05:50 177 14.4
2020-Oct-01 05:40 141 14.4
2020-Oct-01 05:30 186 14.4
2020-Oct-01 05:20 246 14.4
2020-Oct-01 05:10 180 15.0
2020-Oct-01 05:00 235 15.0
2020-Oct-01 04:50 215 0 gusting 2 15.0
2020-Oct-01 04:40 210 0 gusting 1 15.0
2020-Oct-01 04:30 337 15.0
2020-Oct-01 04:20 170 0 gusting 1 15.0
2020-Oct-01 04:10 172 15.0
2020-Oct-01 04:00 180 15.0
2020-Oct-01 03:50 193 0 gusting 2 15.6
2020-Oct-01 03:40 229 15.6
2020-Oct-01 03:30 177 15.6
2020-Oct-01 03:20 206 0 gusting 3 15.6
2020-Oct-01 03:10 148 15.6
2020-Oct-01 03:00 157 0 gusting 1 15.6
2020-Oct-01 02:50 145 0 gusting 2 15.6
2020-Oct-01 02:40 169 0 gusting 2 15.6
2020-Oct-01 02:30 169 1 gusting 2 15.6
2020-Oct-01 02:20 180 0 gusting 1 16.1
2020-Oct-01 02:10 165 1 gusting 2 16.1
2020-Oct-01 02:00 181 1 gusting 1 16.1
2020-Oct-01 01:50 174 1 gusting 1 16.1
2020-Oct-01 01:40 165 1 gusting 2 16.1
2020-Oct-01 01:30 163 1 gusting 2 16.1
2020-Oct-01 01:20 164 2 gusting 2 16.1
2020-Oct-01 01:10 166 1 gusting 2 16.1
2020-Oct-01 01:00 171 1 gusting 2 16.1
2020-Oct-01 00:50 170 1 gusting 2 16.1
2020-Oct-01 00:40 168 1 gusting 1 16.7
2020-Oct-01 00:30 169 0 gusting 2 16.7
2020-Oct-01 00:20 169 1 gusting 2 16.7
2020-Oct-01 00:10 176 1 gusting 2 16.7
2020-Oct-01 00:00 169 1 gusting 2 16.7
2020-Sep-30 23:50 171 1 gusting 2 16.7
2020-Sep-30 23:40 164 0 gusting 1 17.2
2020-Sep-30 23:30 172 0 gusting 1 17.2
2020-Sep-30 23:20 176 0 gusting 0 17.2
2020-Sep-30 23:10 173 0 gusting 1 17.2
2020-Sep-30 23:00 157 17.8
2020-Sep-30 22:50 180 17.8
2020-Sep-30 22:40 174 18.3
2020-Sep-30 22:30 167 0 gusting 2 18.3
2020-Sep-30 22:20 166 0 gusting 2 18.9
2020-Sep-30 22:10 160 0 gusting 1 19.4
2020-Sep-30 22:00 167 1 gusting 2 19.4
2020-Sep-30 21:50 157 20.0
2020-Sep-30 21:40 149 0 gusting 3 20.6
2020-Sep-30 21:30 143 0 gusting 2 21.1
2020-Sep-30 21:20 162 0 gusting 2 21.1
2020-Sep-30 21:10 138 0 gusting 4 21.1
2020-Sep-30 21:00 146 1 gusting 4 21.7
2020-Sep-30 20:50 192 0 gusting 3 21.7
2020-Sep-30 20:40 204 1 gusting 4 22.2
2020-Sep-30 20:30 196 1 gusting 3 22.2
2020-Sep-30 20:20 173 1 gusting 3 22.2
2020-Sep-30 20:10 194 0 gusting 1 21.7
2020-Sep-30 20:00 236 1 gusting 3 22.2
2020-Sep-30 19:50 221 1 gusting 2 21.7
2020-Sep-30 19:40 231 1 gusting 2 21.7
2020-Sep-30 19:30 240 1 gusting 3 21.7
2020-Sep-30 19:20 210 1 gusting 2 21.7
2020-Sep-30 19:10 237 2 gusting 4 21.7
2020-Sep-30 19:00 356 1 gusting 3 21.7
2020-Sep-30 18:50 278 1 gusting 3 21.7
2020-Sep-30 18:40 194 1 gusting 2 21.1
2020-Sep-30 18:30 234 1 gusting 4 21.1
2020-Sep-30 18:20 275 1 gusting 3 20.6
2020-Sep-30 18:10 323 2 gusting 3 21.1
2020-Sep-30 18:00 253 2 gusting 3 20.6
2020-Sep-30 17:50 266 2 gusting 3 20.6
2020-Sep-30 17:40 238 2 gusting 3 21.1
2020-Sep-30 17:30 275 2 gusting 3 20.6
2020-Sep-30 17:20 263 2 gusting 4 20.0
2020-Sep-30 17:10 263 2 gusting 3 19.4
2020-Sep-30 17:00 281 3 gusting 6 19.4
2020-Sep-30 16:50 284 2 gusting 4 19.4
2020-Sep-30 16:40 275 2 gusting 5 18.9
2020-Sep-30 16:30 280 2 gusting 5 18.9
2020-Sep-30 16:20 275 3 gusting 6 18.9
2020-Sep-30 16:10 291 2 gusting 3 18.3
2020-Sep-30 16:00 250 2 gusting 3 18.3
2020-Sep-30 15:50 294 2 gusting 6 18.3
2020-Sep-30 15:40 253 2 gusting 4 18.3
2020-Sep-30 15:30 265 1 gusting 2 18.3
2020-Sep-30 15:20 269 1 gusting 3 18.3
2020-Sep-30 15:10 337 1 gusting 2 17.8
2020-Sep-30 15:00 303 3 gusting 4 17.8
2020-Sep-30 14:50 311 1 gusting 4 17.2
2020-Sep-30 14:40 294 3 gusting 7 17.2
2020-Sep-30 14:30 270 2 gusting 5 17.8
2020-Sep-30 14:20 289 2 gusting 5 16.7
2020-Sep-30 14:10 271 2 gusting 4 16.7
2020-Sep-30 14:00 282 2 gusting 4 16.1
2020-Sep-30 13:50 309 2 gusting 4 16.1
2020-Sep-30 13:40 266 2 gusting 4 15.6
2020-Sep-30 13:30 232 1 gusting 4 15.6
2020-Sep-30 13:20 252 1 gusting 2 15.0
2020-Sep-30 13:10 252 1 gusting 3 14.4
2020-Sep-30 13:00 282 1 gusting 2 13.9
2020-Sep-30 12:50 246 0 gusting 3 13.9
2020-Sep-30 12:40 257 1 gusting 2 13.3
2020-Sep-30 12:30 223 1 gusting 2 12.8
2020-Sep-30 12:20 231 0 gusting 1 12.8
2020-Sep-30 12:10 208 0 gusting 4 12.2
2020-Sep-30 12:00 251 0 gusting 2 12.2
2020-Sep-30 11:50 247 1 gusting 2 12.2
2020-Sep-30 11:40 317 1 gusting 3 12.2
2020-Sep-30 11:30 245 1 gusting 3 12.2
2020-Sep-30 11:20 219 0 gusting 3 12.2
2020-Sep-30 11:10 227 0 gusting 1 12.2
2020-Sep-30 11:00 255 0 gusting 2 12.2
2020-Sep-30 10:50 265 0 gusting 1 12.2
2020-Sep-30 10:40 233 0 gusting 1 12.2
2020-Sep-30 10:30 246 1 gusting 4 12.2
2020-Sep-30 10:20 215 1 gusting 2 12.2
2020-Sep-30 10:10 250 0 gusting 1 12.2
2020-Sep-30 10:00 251 0 gusting 4 12.2
2020-Sep-30 09:50 229 1 gusting 2 12.2
2020-Sep-30 09:40 251 0 gusting 1 12.2
2020-Sep-30 09:30 266 1 gusting 1 12.2
2020-Sep-30 09:20 255 1 gusting 3 12.2
2020-Sep-30 09:10 259 1 gusting 2 12.8
2020-Sep-30 09:00 228 0 gusting 1 12.8
2020-Sep-30 08:50 291 2 gusting 3 12.8
2020-Sep-30 08:40 282 1 gusting 2 12.8
2020-Sep-30 08:30 261 1 gusting 2 12.8
2020-Sep-30 08:20 286 1 gusting 3 12.8
2020-Sep-30 08:10 279 1 gusting 2 12.8
2020-Sep-30 08:00 262 2 gusting 3 12.8
2020-Sep-30 07:50 262 2 gusting 4 12.8
2020-Sep-30 07:40 257 2 gusting 5 12.8
2020-Sep-30 07:30 250 1 gusting 4 12.8
2020-Sep-30 07:20 189 0 gusting 2 12.8
2020-Sep-30 07:10 217 0 gusting 2 12.8
2020-Sep-30 07:00 266 1 gusting 2 12.8
2020-Sep-30 06:50 12.8
2020-Sep-30 06:40 12.8
2020-Sep-30 06:30 12.8
2020-Sep-30 06:20 12.8
2020-Sep-30 06:10 12.8
2020-Sep-30 06:00 040 0 gusting 1 12.8
2020-Sep-30 05:50 259 12.8
2020-Sep-30 05:40 359 12.8
2020-Sep-30 05:30 086 12.8
2020-Sep-30 05:20 267 12.8
2020-Sep-30 05:10 015 1 gusting 2 12.8
2020-Sep-30 05:00 327 0 gusting 1 12.8
2020-Sep-30 04:50 356 1 gusting 2 12.8
2020-Sep-30 04:40 340 1 gusting 3 12.8
2020-Sep-30 04:30 013 2 gusting 4 12.8
2020-Sep-30 04:20 340 2 gusting 3 12.8
2020-Sep-30 04:10 328 1 gusting 3 13.3
2020-Sep-30 04:00 322 1 gusting 2 13.3
2020-Sep-30 03:50 296 1 gusting 2 13.3
2020-Sep-30 03:40 339 1 gusting 2 13.3
2020-Sep-30 03:30 331 1 gusting 2 13.9
2020-Sep-30 03:20 269 1 gusting 2 13.9
2020-Sep-30 03:10 296 2 gusting 4 14.4
2020-Sep-30 03:00 301 1 gusting 3 14.4
2020-Sep-30 02:50 325 2 gusting 3 14.4
2020-Sep-30 02:40 301 2 gusting 4 15.0
2020-Sep-30 02:30 355 0 gusting 1 15.0
2020-Sep-30 02:20 305 1 gusting 2 15.0
2020-Sep-30 02:10 307 1 gusting 2 15.6
2020-Sep-30 02:00 330 1 gusting 2 15.6
2020-Sep-30 01:50 321 1 gusting 2 15.6
2020-Sep-30 01:40 230 0 gusting 2 16.1
2020-Sep-30 01:30 332 1 gusting 2 16.1
2020-Sep-30 01:20 352 1 gusting 1 16.1
2020-Sep-30 01:10 328 2 gusting 3 16.1
2020-Sep-30 01:00 322 1 gusting 3 16.7
2020-Sep-30 00:50 306 2 gusting 3 16.7
2020-Sep-30 00:40 283 1 gusting 3 17.2
2020-Sep-30 00:30 013 1 gusting 2 17.8
2020-Sep-30 00:20 324 1 gusting 4 17.8
2020-Sep-30 00:10 308 1 gusting 2 18.9
2020-Sep-30 00:00 339 1 gusting 1 20.0
2020-Sep-29 23:50 324 1 gusting 2 20.6
2020-Sep-29 23:40 322 2 gusting 2 21.1
2020-Sep-29 23:30 311 1 gusting 2 22.2
2020-Sep-29 23:20 166 1 gusting 3 22.8
2020-Sep-29 23:10 160 1 gusting 3 22.8
2020-Sep-29 23:00 170 2 gusting 4 22.8
2020-Sep-29 22:50 172 1 gusting 3 22.8
2020-Sep-29 22:40 170 1 gusting 2 22.8
2020-Sep-29 22:30 165 2 gusting 4 23.3
2020-Sep-29 22:20 156 3 gusting 5 23.3
2020-Sep-29 22:10 152 2 gusting 5 23.3
2020-Sep-29 22:00 154 2 gusting 4 23.3
2020-Sep-29 21:50 165 2 gusting 3 23.3
2020-Sep-29 21:40 157 3 gusting 6 23.3
2020-Sep-29 21:30 144 3 gusting 5 23.9
2020-Sep-29 21:20 153 2 gusting 4 23.9
2020-Sep-29 21:10 171 3 gusting 5 23.9
2020-Sep-29 21:00 153 2 gusting 3 23.9
2020-Sep-29 20:50 143 2 gusting 4 23.9
2020-Sep-29 20:40 174 2 gusting 3 23.9
2020-Sep-29 20:30 153 2 gusting 3 24.4
2020-Sep-29 20:20 163 2 gusting 3 24.4
2020-Sep-29 20:10 149 3 gusting 6 24.4
2020-Sep-29 20:00 157 3 gusting 4 23.9
2020-Sep-29 19:50 153 3 gusting 6 23.9
2020-Sep-29 19:40 155 4 gusting 6 23.9
2020-Sep-29 19:30 170 3 gusting 5 23.9
2020-Sep-29 19:20 170 3 gusting 5 24.4
2020-Sep-29 19:10 174 3 gusting 5 24.4
2020-Sep-29 19:00 154 3 gusting 5 24.4
2020-Sep-29 18:50 155 3 gusting 5 24.4
2020-Sep-29 18:40 150 3 gusting 5 24.4
2020-Sep-29 18:30 173 4 gusting 5 23.9
2020-Sep-29 18:20 164 2 gusting 4 25.0
2020-Sep-29 18:10 151 1 gusting 2 24.4
2020-Sep-29 18:00 156 2 gusting 4 24.4
2020-Sep-29 17:50 168 1 gusting 3 24.4
2020-Sep-29 17:40 147 3 gusting 4 24.4
2020-Sep-29 17:30 154 3 gusting 5 24.4
2020-Sep-29 17:20 164 1 gusting 3 25.0
2020-Sep-29 17:10 179 1 gusting 3 24.4
2020-Sep-29 17:00 156 1 gusting 2 24.4
2020-Sep-29 16:50 156 0 gusting 1 25.0
2020-Sep-29 16:40 337 25.0
2020-Sep-29 16:30 168 25.6
2020-Sep-29 16:20 189 25.6
2020-Sep-29 16:10 144 0 gusting 1 25.6
2020-Sep-29 16:00 212 0 gusting 1 25.6